Showing default

EUTE 172B, 42741

Orbit data source: Space-Track

EUTE 172B, 42741 is a payload satellite owned by EutelsatSA (FR) in GEO that was launched on Thu, 01 Jun 2017 UTC via an ARIANE 5ECA launch vehicle from the French Guiana (FRGUI). Payloads include a variety of satellites, spacecraft, and rockets equipped with specific instruments for various scientific and technological missions. These include communications satellites like Starlink; space stations such as the ISS; scientific satellites like the Hubble; Earth observation satellites from companies like Planet Labs, Umbra, and HawkEye 360; GPS; miniature CubeSats for education and research; and military/defense satellites.

Not visible in the next 10 days
EUTE 172B details
Identifier
42741, 2017-029B
Orbit
GEO
Last TLE update6 hours ago
Origin
Flag of FREutelsatSA (FR / EUTE)
ManufacturerAirbus/Toulouse
MissionOperational Commercial Communications
Bus & MotorEUROSTAR 3000E, EOR
Mass3,551 kg wet, 2,951 kg dry
Launch date (UTC)
2017-06-01 (8 years ago)
Launch vehicle
ARIANE 5ECA
Launch site
French Guiana (FRGUI)
Object type
Payload
Rocket body
Debris
Shape & HBRBox + 2 Pan, 39.3 m
Radar Cross Section49.877 m², Large (>1 m²)

Expand to show TLE details & history

TLE from 6 hours ago
0 EUTE 172B
1 42741U 17029B   24361.29479963  .00000022  00000-0  00000-0 0  9996
2 42741   0.0159  24.7659 0000244  69.7909 278.8362  1.00270770 28334
Epoch: 2024-12-26T07:04Z
Definitive object data (Epoch: 2024-12-26T07:04:30.688Z)
Latitude-0.00007°
Longitude171.97847°
Altitude35,786.21 km
Speed3.075 km/s
True Right ascension00h 53m 31s
True Declination0° 00' 00"
Sunlit
Object was in daylight at TLE epoch
Visualization TLE readout
Latitude0.03632°
Longitude-100.72611°
Altitude35,785.326 km
Speed3.075 km/s
Apparent Right ascension06h 16m 01s
Apparent Declination-5° 31' 15"
Sunlit
Object is in daylight
Visualization observer readout
Local Sidereal Time12:14:19
Azimuth265.488° W
Elevation-3.213°
Doppler factor1
Orbital elements
Apogee altitude35,788.979 km
Perigee altitude35,786.921 km
Semi-major axis42,166.087 km
Eccentricity0.0000244
Inclination0.0159°
RAAN24.7659°
Arg. of periapsis69.7909°
True anomaly278.83344°
Mean anomaly278.8362°
Eccentric anomaly278.83482°
Mean motion0.25067 °/min
BSTARUnknown
Orbital period1436.16 mins
Loading historical data...
42741 neighbors
Authenticating...
Loading maneuver chart data...
Loading historical data...
Loading historical data...
Loading historical data...
Loading historical data...
Loading historical data...
Loading historical data...
Loading historical data...
Other satellites on launch #29 in the year 2017 (2017-06-01 UTC)

EUTE 172B Visibility forecast

Observer location: undefined°, undefined

EUTE 172B is not visible in the next 10 days
Span
Click to sort rows by Start time (UTC) header in descending order
Start Az.
Max El. time (UTC)
Max El. Az.
Max El.
End time (UTC)
End Az.
|